Weather History for Cook, MN

Change the Weather History Date:

Tuesday, December 25, 2012

  Actual Average Record
Temperature  
Mean Temperature -8 °F -  
Max Temperature 1 °F 16 °F 44 °F (1999)
Min Temperature -16 °F 1 °F -32 °F (1996)
Degree Days  
Heating Degree Days 72    
Moisture  
Dew Point -14 °F    
Average Humidity 81    
Maximum Humidity 92    
Minimum Humidity 72    
Precipitation  
Precipitation 0.00 in - - ()
Sea Level Pressure  
Sea Level Pressure 30.35 in    
Wind  
Wind Speed 4 mph (West)    
Max Wind Speed 7 mph    
Max Gust Speed -    
Visibility 10 miles    
Events      
Averages and records for this station are not official NWS values.
T = Trace of Precipitation, MM = Missing Value Source: NWS Daily Summary

Daily Weather History Graph

Daily Weather History Graph

Search for Another Location

Airport:

Trip Planner

Search our weather history database for the weather conditions in past years. The results will help you decide how hot, cold, wet, or windy it might be!

Date:

Astronomy

Dec. 25, 2012 Rise Set
Actual Time 7:58 AM CST 4:23 PM CST
Civil Twilight 7:22 AM CST 4:59 PM CST
Nautical Twilight 6:43 AM CST 5:39 PM CST
Astronomical Twilight 6:05 AM CST 6:16 PM CST
Moon 2:34 PM CST (12/25) 5:28 AM CST (12/25)
Length of Visible Light 9h 37m
Length of Day
8h 24m
Waxing Gibbous, 94% of the Moon is Illuminated
Dec 25
Waxing Gibbous
Dec 28
Full
Jan 4
Last Quarter
Jan 11
New
Jan 18
First Quarter

Hourly Weather History & Observations

Time (CST) Temp. Windchill Dew Point Humidity Pressure Visibility Wind Dir Wind Speed Gust Speed Precip Events Conditions
12:16 AM -11.2 °F -20.6 °F -14.8 °F 84% 30.26 in 10.0 mi WNW 3.5 mph - N/A   Clear
12:37 AM -11.2 °F -20.6 °F -14.8 °F 84% 30.25 in 10.0 mi West 3.5 mph - N/A   Scattered Clouds
12:56 AM -9.4 °F -18.6 °F -14.8 °F 77% 30.26 in 10.0 mi West 3.5 mph - N/A   Overcast
1:16 AM -9.4 °F -20.9 °F -14.8 °F 77% 30.26 in 10.0 mi West 4.6 mph - N/A   Overcast
1:37 AM -9.4 °F -20.9 °F -13.0 °F 84% 30.27 in 10.0 mi West 4.6 mph - N/A   Overcast
1:56 AM -9.4 °F -20.9 °F -13.0 °F 84% 30.27 in 10.0 mi West 4.6 mph - N/A   Overcast
2:17 AM -9.4 °F -18.6 °F -13.0 °F 84% 30.28 in 10.0 mi West 3.5 mph - N/A   Overcast
2:37 AM -9.4 °F -20.9 °F -14.8 °F 77% 30.29 in 10.0 mi West 4.6 mph - N/A   Overcast
2:56 AM -9.4 °F -20.9 °F -14.8 °F 77% 30.29 in 10.0 mi West 4.6 mph - N/A   Overcast
3:17 AM -9.4 °F -18.6 °F -14.8 °F 77% 30.29 in 10.0 mi WNW 3.5 mph - N/A   Overcast
3:37 AM -9.4 °F -20.9 °F -14.8 °F 77% 30.29 in 10.0 mi WNW 4.6 mph - N/A   Overcast
3:56 AM -9.4 °F -20.9 °F -14.8 °F 77% 30.30 in 10.0 mi WNW 4.6 mph - N/A   Overcast
4:17 AM -9.4 °F -20.9 °F -14.8 °F 77% 30.30 in 10.0 mi West 4.6 mph - N/A   Overcast
4:37 AM -11.2 °F -24.8 °F -14.8 °F 84% 30.31 in 10.0 mi West 5.8 mph - N/A   Overcast
4:56 AM -11.2 °F -26.4 °F -14.8 °F 84% 30.31 in 10.0 mi West 6.9 mph - N/A   Overcast
5:17 AM -11.2 °F -23.0 °F -14.8 °F 84% 30.32 in 10.0 mi West 4.6 mph - N/A   Overcast
5:37 AM -11.2 °F -24.8 °F -16.6 °F 77% 30.33 in 10.0 mi West 5.8 mph - N/A   Overcast
5:56 AM -13.0 °F -27.0 °F -16.6 °F 84% 30.33 in 10.0 mi West 5.8 mph - N/A   Scattered Clouds
6:17 AM -11.2 °F -24.8 °F -16.6 °F 77% 30.34 in 10.0 mi West 5.8 mph - N/A   Scattered Clouds
6:37 AM -13.0 °F -25.1 °F -16.6 °F 84% 30.34 in 10.0 mi West 4.6 mph - N/A   Scattered Clouds
6:56 AM -13.0 °F -25.1 °F -16.6 °F 84% 30.35 in 10.0 mi West 4.6 mph - N/A   Scattered Clouds
7:17 AM -13.0 °F -27.0 °F -16.6 °F 84% 30.35 in 10.0 mi West 5.8 mph - N/A   Mostly Cloudy
7:37 AM -11.2 °F -24.8 °F -16.6 °F 77% 30.36 in 10.0 mi West 5.8 mph - N/A   Overcast
7:56 AM -11.2 °F -23.0 °F -16.6 °F 77% 30.37 in 10.0 mi West 4.6 mph - N/A   Overcast
8:17 AM -11.2 °F -23.0 °F -16.6 °F 77% 30.37 in 10.0 mi West 4.6 mph - N/A   Overcast
8:36 AM -11.2 °F -23.0 °F -16.6 °F 77% 30.37 in 10.0 mi West 4.6 mph - N/A   Overcast
8:56 AM -11.2 °F -23.0 °F -14.8 °F 84% 30.37 in 10.0 mi West 4.6 mph - N/A   Overcast
9:17 AM -11.2 °F -24.8 °F -14.8 °F 84% 30.38 in 10.0 mi West 5.8 mph - N/A   Overcast
9:36 AM -11.2 °F -24.8 °F -14.8 °F 84% 30.38 in 10.0 mi West 5.8 mph - N/A   Overcast
9:57 AM -9.4 °F -22.7 °F -14.8 °F 77% 30.39 in 10.0 mi West 5.8 mph - N/A   Overcast
10:16 AM -9.4 °F -22.7 °F -14.8 °F 77% 30.40 in 10.0 mi West 5.8 mph - N/A   Overcast
10:37 AM -9.4 °F -20.9 °F -13.0 °F 84% 30.40 in 10.0 mi West 4.6 mph - N/A   Overcast
10:56 AM -7.6 °F -18.8 °F -11.2 °F 84% 30.39 in 10.0 mi West 4.6 mph - N/A   Overcast
11:17 AM -7.6 °F -18.8 °F -11.2 °F 84% 30.39 in 10.0 mi West 4.6 mph - N/A   Overcast
11:36 AM -5.8 °F -18.4 °F -9.4 °F 84% 30.39 in 10.0 mi West 5.8 mph - N/A   Overcast
11:56 AM -5.8 °F -18.4 °F -9.4 °F 84% 30.38 in 10.0 mi West 5.8 mph - N/A   Overcast
12:16 PM -5.8 °F -16.7 °F -7.6 °F 92% 30.38 in 10.0 mi West 4.6 mph - N/A   Overcast
12:36 PM -2.2 °F -14.2 °F -7.6 °F 78% 30.37 in 10.0 mi WNW 5.8 mph - N/A   Overcast
12:57 PM -2.2 °F -12.5 °F -5.8 °F 85% 30.37 in 10.0 mi West 4.6 mph - N/A   Scattered Clouds
1:17 PM -2.2 °F -15.6 °F -5.8 °F 85% 30.37 in 10.0 mi West 6.9 mph - N/A   Scattered Clouds
1:36 PM -0.4 °F -8.3 °F -5.8 °F 78% 30.37 in 10.0 mi WSW 3.5 mph - N/A   Scattered Clouds
1:57 PM -0.4 °F - -5.8 °F 78% 30.36 in 10.0 mi Calm Calm - N/A   Clear
2:16 PM -0.4 °F -8.3 °F -5.8 °F 78% 30.36 in 10.0 mi West 3.5 mph - N/A   Clear
2:36 PM -0.4 °F -10.4 °F -5.8 °F 78% 30.36 in 10.0 mi WNW 4.6 mph - N/A   Clear
2:57 PM 1.4 °F -6.2 °F -5.8 °F 72% 30.36 in 10.0 mi WNW 3.5 mph - N/A   Clear
3:17 PM 1.4 °F - -5.8 °F 72% 30.37 in 10.0 mi Calm Calm - N/A   Clear
3:36 PM 1.4 °F -6.2 °F -5.8 °F 72% 30.37 in 10.0 mi SW 3.5 mph - N/A   Clear
3:57 PM -0.4 °F -10.4 °F -5.8 °F 78% 30.37 in 10.0 mi West 4.6 mph - N/A   Clear
4:14 PM -0.4 °F - -5.8 °F 78% 30.37 in 10.0 mi Calm Calm - N/A   Clear
4:37 PM -0.4 °F - -5.8 °F 78% 30.36 in 10.0 mi Calm Calm - N/A   Clear
4:56 PM -2.2 °F - -5.8 °F 85% 30.37 in 10.0 mi Calm Calm - N/A   Clear
5:17 PM -5.8 °F - -9.4 °F 84% 30.37 in 10.0 mi Calm Calm - N/A   Clear
5:37 PM -5.8 °F - -9.4 °F 84% 30.37 in 10.0 mi Calm Calm - N/A   Clear
5:56 PM -7.6 °F - -11.2 °F 84% 30.36 in 10.0 mi Calm Calm - N/A   Clear
6:17 PM -9.4 °F - -13.0 °F 84% 30.36 in 10.0 mi Calm Calm - N/A   Clear
6:37 PM -9.4 °F - -14.8 °F 77% 30.37 in 10.0 mi Calm Calm - N/A   Clear
6:56 PM -11.2 °F - -14.8 °F 84% 30.38 in 10.0 mi Calm Calm - N/A   Clear
7:17 PM -11.2 °F - -14.8 °F 84% 30.39 in 10.0 mi Calm Calm - N/A   Clear
7:37 PM -11.2 °F - -16.6 °F 77% 30.40 in 10.0 mi Calm Calm - N/A   Clear
7:56 PM -13.0 °F - -16.6 °F 84% 30.40 in 10.0 mi Calm Calm - N/A   Clear
8:17 PM -13.0 °F - -16.6 °F 84% 30.40 in 10.0 mi Calm Calm - N/A   Clear
8:36 PM -14.8 °F - -18.4 °F 84% 30.41 in 10.0 mi Calm Calm - N/A   Clear
8:56 PM -14.8 °F - -18.4 °F 84% 30.41 in 10.0 mi Calm Calm - N/A   Clear
9:16 PM -14.8 °F - -20.2 °F 77% 30.41 in 10.0 mi Calm Calm - N/A   Clear
9:37 PM -14.8 °F - -20.2 °F 77% 30.41 in 10.0 mi Calm Calm - N/A   Clear
9:56 PM -16.6 °F - -20.2 °F 84% 30.41 in 10.0 mi Calm Calm - N/A   Clear
10:17 PM -16.6 °F - -20.2 °F 84% 30.40 in 10.0 mi Calm Calm - N/A   Clear
10:37 PM -16.6 °F - -20.2 °F 84% 30.39 in 10.0 mi Calm Calm - N/A   Clear
10:56 PM -16.6 °F - -20.2 °F 84% 30.37 in 10.0 mi Calm Calm - N/A   Clear
11:17 PM -16.6 °F - -20.2 °F 84% 30.36 in 10.0 mi Calm Calm - N/A   Clear
11:37 PM -16.6 °F - -20.2 °F 84% 30.34 in 10.0 mi Calm Calm - N/A   Clear
11:56 PM -16.6 °F - -22.0 °F 76% 30.35 in 10.0 mi Calm Calm - N/A   Clear